Voltar ao catálogo

TIANPING-3A02

AtivoCiênciaLEO
NORAD 63432·PAYLOAD·🇨🇳 China

Lançado Apr 3, 2025 de Taiyuan Satellite Launch Center

Loading…

Próximas Passagens (próximas 24 horas)

TLE

AtualizadoSource: Space-Track

Época: Sep 13, 2026, 22:59 UTC

1 63432U 25068A   26256.95781860  .00002254  00000-0  17624-3 0  9990
2 63432  43.0005 297.4496 0236088  56.6888 305.6318 14.84727243 78576

Acompanhe TIANPING-3A02 em tempo real com AllMySat

Download on the App Store